Home > Weather > San Pedro Sula > Past weeks

Flag for Honduras Weather for the Past 2 Weeks in San Pedro Sula, Honduras

Now
79 °F

Passing clouds.


Feels Like: 83 °F
Forecast: 81 / 98 °F
Wind: 2 mph from Southwest

Location: La Mesa San Pedro Sula

Current Time: May 1, 2016 at 4:20:53 AM

Latest Report: May 1, 2016 at 4:00 AM


Visibility: N/A

Pressure: 29.71 "Hg

Humidity: 100%

Dew Point: 79 °F

Location of San Pedro SulaLocation

Historic Weather in San Pedro Sula — Graph

°F

San Pedro Sula Temperature Yesterday

Maximum temperature yesterday: 104 °F (at 2:00 PM)
Minimum temperature yesterday: 79 °F (at 1:00 AM)
Average temperature yesterday: 89 °F

High & Low Weather Summary for the Past Weeks

 TemperatureHumidityPressure
High104 °F (Apr 30, 2:00 PM)100% (Apr 16, 3:00 AM)30.01 "Hg (Apr 16, 3:00 AM)
Low70 °F (Apr 21, 6:00 AM)34% (Apr 17, 2:00 PM)29.59 "Hg (Apr 30, 3:00 PM)
Average84 °F84%29.84 "Hg
* Reported Apr 16 3:00 AM — May 1 3:00 AM, San Pedro Sula, Weather by CustomWeather, © 2016

Note: Actual official high and low records may vary slightly from our data, if they occured in-between our weather recording intervals... More about our weather records

Advertising

San Pedro Sula Weather History for the Previous 24 Hours

Scroll right to see more
 ConditionsComfort  
Time TempWeatherWind HumidityBarometerVisibility
3:00 AM
Sun, May 1
81 °FPassing clouds.No wind100%29.74 "HgN/A
2:00 AM82 °FPassing clouds.2 mph94%29.71 "HgN/A
1:00 AM81 °FPassing clouds.No wind100%29.74 "HgN/A
12:00 AM82 °FPassing clouds.No wind94%29.74 "HgN/A
11:00 PM
Sat, Apr 30
84 °FPassing clouds.2 mph89%29.74 "HgN/A
10:00 PM84 °FPassing clouds.2 mph89%29.74 "HgN/A
9:00 PM86 °FPassing clouds.5 mph84%29.71 "HgN/A
8:00 PM86 °FPassing clouds.7 mph79%29.68 "HgN/A
7:00 PM88 °FPassing clouds.9 mph79%29.65 "HgN/A
6:00 PM90 °FPartly sunny.12 mph75%29.65 "HgN/A
5:00 PM91 °FScattered clouds.16 mph71%29.62 "HgN/A
4:00 PM95 °FScattered clouds.21 mph63%29.59 "HgN/A
3:00 PM99 °FScattered clouds.16 mph64%29.59 "HgN/A
2:00 PM104 °FPartly sunny.5 mph38%29.62 "HgN/A
1:00 PM102 °FBroken clouds.5 mph42%29.65 "HgN/A
12:00 PM100 °FBroken clouds.7 mph47%29.68 "HgN/A
11:00 AM99 °FBroken clouds.12 mph47%29.71 "HgN/A
10:00 AM95 °FBroken clouds.9 mph56%29.74 "HgN/A
9:00 AM91 °FBroken clouds.7 mph67%29.74 "HgN/A
8:00 AM86 °FPartly sunny.No wind84%29.74 "Hg5 mi
7:00 AM81 °FPartly sunny.2 mph94%29.74 "Hg5 mi
6:00 AM79 °FPartly sunny.No wind94%29.74 "Hg5 mi
5:00 AM79 °FPassing clouds.No wind94%29.71 "Hg4 mi
4:00 AM79 °FPassing clouds.No wind94%29.71 "Hg4 mi
Weather by CustomWeather, © 2016

See weather overviewHow to use our weather pages